Weather History for Gonzales, LA

Change the Weather History Date:

Monday, January 27, 2014

  Actual Average (KBTR) Record (KBTR)
Temperature  
Mean Temperature 52 °F 52 °F  
Max Temperature 61 °F 63 °F 81 °F (2009)
Min Temperature 43 °F 42 °F 16 °F (1940)
Degree Days  
Heating Degree Days 13 13  
Month to date heating degree days 374  
Since 1 July heating degree days 990  
Cooling Degree Days 0 0  
Month to date cooling degree days 3  
Year to date cooling degree days 3  
Growing Degree Days 2 (Base 50)    
Moisture  
Dew Point 49 °F    
Average Humidity 81    
Maximum Humidity 100    
Minimum Humidity 38    
Precipitation  
Precipitation 0.22 in 0.19 in 4.24 in (1994)
Month to date precipitation 4.96  
Year to date precipitation 4.96  
Snow  
Snow 0.00 in - - ()
Month to date snowfall  
Since 1 July snowfall  
Snow Depth -    
Sea Level Pressure  
Sea Level Pressure 29.96 in    
Wind  
Wind Speed 4 mph (North)    
Max Wind Speed 15 mph    
Max Gust Speed 22 mph    
Visibility 7 miles    
Events Fog , Rain    
T = Trace of Precipitation, MM = Missing Value Source: NWS Daily Summary

Daily Weather History Graph

Daily Weather History Graph

Search for Another Location

Airport:

Trip Planner

Search our weather history database for the weather conditions in past years. The results will help you decide how hot, cold, wet, or windy it might be!

Date:

Astronomy

Jan. 27, 2014 Rise Set
Actual Time 6:56 AM CST 5:36 PM CST
Civil Twilight 6:31 AM CST 6:01 PM CST
Nautical Twilight 6:02 AM CST 6:30 PM CST
Astronomical Twilight 5:34 AM CST 6:59 PM CST
Moon 3:35 AM CST (1/27) 2:25 PM CST (1/27)
Length of Visible Light 11h 30m
Length of Day
10h 39m
Waning Crescent, 14% of the Moon is Illuminated
Jan 27
Waning Crescent
Jan 30
New
Feb 6
First Quarter
Feb 14
Full
Feb 22
Last Quarter

Hourly Weather History & Observations

Time (CST) Temp. Windchill Dew Point Humidity Pressure Visibility Wind Dir Wind Speed Gust Speed Precip Events Conditions
12:15 AM 56.3 °F - 54.5 °F 94% 29.88 in 7.0 mi Calm Calm - N/A   Overcast
12:35 AM 56.3 °F - 54.5 °F 94% 29.88 in 7.0 mi Calm Calm - N/A   Overcast
12:55 AM 56.3 °F - 54.5 °F 94% 29.88 in 7.0 mi Calm Calm - N/A   Overcast
1:15 AM 56.3 °F - 54.7 °F 94% 29.88 in 7.0 mi Calm Calm - N/A   Overcast
1:35 AM 56.1 °F - 54.5 °F 94% 29.88 in 7.0 mi Calm Calm - N/A   Overcast
1:55 AM 55.8 °F - 54.9 °F 97% 29.87 in 7.0 mi SE 4.6 mph - N/A   Overcast
2:15 AM 57.2 °F - 56.1 °F 96% 29.87 in 7.0 mi SSE 3.5 mph - N/A   Overcast
2:35 AM 57.2 °F - 56.3 °F 97% 29.86 in 7.0 mi SE 4.6 mph - N/A   Overcast
2:55 AM 56.7 °F - 55.8 °F 97% 29.86 in 7.0 mi SE 3.5 mph - N/A   Overcast
3:15 AM 56.8 °F - 55.9 °F 97% 29.85 in 7.0 mi Calm Calm - N/A   Overcast
3:35 AM 57.2 °F - 56.3 °F 97% 29.85 in 7.0 mi SE 3.5 mph - N/A   Overcast
3:55 AM 57.2 °F - 56.3 °F 97% 29.85 in 5.0 mi Calm Calm - N/A Rain Rain
4:15 AM 57.0 °F - 56.5 °F 98% 29.85 in 5.0 mi Calm Calm - N/A   Overcast
4:35 AM 57.6 °F - 57.2 °F 99% 29.85 in 5.0 mi Calm Calm - N/A   Overcast
4:55 AM 58.1 °F - 57.7 °F 99% 29.86 in 5.0 mi Calm Calm - N/A   Overcast
5:15 AM 58.3 °F - 58.1 °F 99% 29.86 in 5.0 mi Calm Calm - N/A   Overcast
5:35 AM 58.5 °F - 58.1 °F 99% 29.86 in 5.0 mi Calm Calm - N/A   Overcast
5:55 AM 58.5 °F - 58.1 °F 99% 29.87 in 5.0 mi SSE 3.5 mph - N/A   Overcast
6:15 AM 60.1 °F - 60.1 °F 100% 29.89 in 1.8 mi WNW 6.9 mph - N/A Rain Light Rain
6:35 AM 60.8 °F - 60.8 °F 100% 29.90 in 0.5 mi WSW 3.5 mph - N/A Rain Light Rain
6:55 AM 60.3 °F - 60.3 °F 100% 29.90 in 0.5 mi Calm Calm - N/A Fog Fog
7:15 AM 60.1 °F - 60.1 °F 100% 29.91 in 0.2 mi Calm Calm - 0.01 in Rain Rain
7:35 AM 59.9 °F - 59.9 °F 100% 29.91 in 0.5 mi Calm Calm - 0.02 in Rain Light Rain
7:55 AM 60.1 °F - 60.1 °F 100% 29.91 in 2.0 mi Calm Calm - 0.03 in   Overcast
8:15 AM 60.3 °F - 60.3 °F 100% 29.92 in 1.8 mi Calm Calm - N/A   Light Drizzle
8:35 AM 60.8 °F - 60.8 °F 100% 29.93 in 0.8 mi NNW 5.8 mph - N/A   Light Drizzle
8:55 AM 61.0 °F - 61.0 °F 100% 29.93 in 1.2 mi NE 3.5 mph - 0.07 in Rain Heavy Rain
9:15 AM 61.3 °F - 61.3 °F 100% 29.94 in 1.5 mi NNE 3.5 mph - 0.05 in Rain Rain
9:35 AM 61.7 °F - 61.7 °F 100% 29.95 in 3.0 mi NNW 4.6 mph - 0.06 in Rain Rain
9:55 AM 60.1 °F - 60.1 °F 100% 29.95 in 5.0 mi North 5.8 mph - 0.10 in Rain Rain
10:15 AM 60.1 °F - 60.1 °F 100% 29.96 in 7.0 mi NNW 3.5 mph - 0.01 in   Light Drizzle
10:35 AM 60.8 °F - 60.8 °F 100% 29.97 in 4.0 mi North 3.5 mph - 0.02 in Rain Light Rain
10:55 AM 61.3 °F - 61.2 °F 99% 29.97 in 7.0 mi North 5.8 mph - 0.02 in   Light Drizzle
11:15 AM 61.0 °F - 60.6 °F 99% 29.96 in 10.0 mi NNE 5.8 mph - N/A   Overcast
11:35 AM 60.4 °F - 59.5 °F 97% 29.96 in 7.0 mi North 8.1 mph - N/A   Overcast
11:55 AM 60.3 °F - 59.0 °F 96% 29.95 in 10.0 mi North 6.9 mph - N/A   Overcast
12:15 PM 60.8 °F - 59.2 °F 94% 29.95 in 7.0 mi North 6.9 mph - N/A   Overcast
12:35 PM 60.8 °F - 58.6 °F 93% 29.95 in 10.0 mi NNE 5.8 mph - N/A   Overcast
12:55 PM 60.8 °F - 58.3 °F 91% 29.94 in 10.0 mi NNE 6.9 mph - N/A   Overcast
1:15 PM 61.0 °F - 57.6 °F 88% 29.94 in 10.0 mi North 5.8 mph - N/A   Overcast
1:35 PM 61.5 °F - 56.5 °F 83% 29.93 in 10.0 mi North 4.6 mph - N/A   Overcast
1:55 PM 61.5 °F - 56.5 °F 83% 29.93 in 10.0 mi North 4.6 mph - N/A   Overcast
2:15 PM 60.1 °F - 55.6 °F 85% 29.94 in 10.0 mi North 9.2 mph - N/A   Overcast
2:35 PM 59.4 °F - 54.5 °F 84% 29.94 in 10.0 mi North 12.7 mph 16.1 mph N/A   Overcast
2:55 PM 59.2 °F - 54.3 °F 84% 29.95 in 10.0 mi North 6.9 mph - N/A   Overcast
3:15 PM 59.2 °F - 53.6 °F 82% 29.95 in 10.0 mi North 9.2 mph - N/A   Overcast
3:35 PM 58.5 °F - 52.3 °F 80% 29.95 in 10.0 mi NNW 9.2 mph - N/A   Overcast
3:55 PM 58.1 °F - 51.4 °F 78% 29.97 in 10.0 mi NNW 8.1 mph - N/A   Overcast
4:15 PM 57.2 °F - 49.8 °F 76% 29.98 in 10.0 mi North 10.4 mph - N/A   Overcast
4:35 PM 56.3 °F - 47.3 °F 72% 29.99 in 10.0 mi NNW 10.4 mph 17.3 mph N/A   Overcast
4:55 PM 55.0 °F - 43.9 °F 66% 30.00 in 10.0 mi North 10.4 mph 16.1 mph N/A   Overcast
5:15 PM 54.5 °F - 43.7 °F 67% 30.01 in 10.0 mi North 8.1 mph 16.1 mph N/A   Overcast
5:35 PM 54.1 °F - 42.8 °F 66% 30.01 in 10.0 mi NNW 8.1 mph - N/A   Overcast
5:55 PM 53.6 °F - 41.2 °F 63% 30.02 in 10.0 mi North 8.1 mph - N/A   Overcast
6:15 PM 53.1 °F - 40.6 °F 63% 30.03 in 10.0 mi North 9.2 mph - N/A   Overcast
6:35 PM 52.2 °F - 39.0 °F 61% 30.03 in 10.0 mi NNW 8.1 mph - N/A   Overcast
6:55 PM 52.0 °F - 36.7 °F 56% 30.05 in 10.0 mi NNW 10.4 mph 16.1 mph N/A   Overcast
7:15 PM 51.3 °F - 35.8 °F 55% 30.05 in 10.0 mi North 11.5 mph 17.3 mph N/A   Overcast
7:35 PM 50.9 °F - 34.0 °F 52% 30.06 in 10.0 mi NNW 10.4 mph 16.1 mph N/A   Overcast
7:55 PM 50.4 °F - 33.1 °F 52% 30.06 in 10.0 mi North 6.9 mph 16.1 mph N/A   Overcast
8:15 PM 50.0 °F - 32.9 °F 52% 30.07 in 10.0 mi North 9.2 mph 16.1 mph N/A   Overcast
8:35 PM 49.1 °F - 31.3 °F 50% 30.08 in 10.0 mi North 12.7 mph 21.9 mph N/A   Overcast
8:55 PM 48.0 °F - 29.7 °F 49% 30.10 in 10.0 mi North 15.0 mph 19.6 mph N/A   Overcast
9:15 PM 46.6 °F - 27.0 °F 46% 30.10 in 10.0 mi North 15.0 mph 20.7 mph N/A   Overcast
9:35 PM 46.0 °F 40.2 °F 25.3 °F 44% 30.10 in 10.0 mi North 12.7 mph 19.6 mph N/A   Overcast
9:55 PM 45.5 °F 39.9 °F 24.3 °F 43% 30.11 in 10.0 mi North 11.5 mph - N/A   Overcast
10:15 PM 45.0 °F 41.2 °F 23.0 °F 42% 30.11 in 10.0 mi North 6.9 mph - N/A   Overcast
10:35 PM 44.4 °F 39.0 °F 21.7 °F 41% 30.11 in 10.0 mi North 10.4 mph 16.1 mph N/A   Overcast
10:55 PM 43.7 °F 37.3 °F 20.5 °F 40% 30.11 in 10.0 mi North 12.7 mph 17.3 mph N/A   Overcast
11:15 PM 43.7 °F 39.7 °F 20.1 °F 39% 30.11 in 10.0 mi North 6.9 mph - N/A   Overcast
11:35 PM 43.3 °F 38.6 °F 19.8 °F 39% 30.11 in 10.0 mi North 8.1 mph 16.1 mph N/A   Overcast
11:55 PM 43.2 °F 37.9 °F 18.9 °F 38% 30.11 in 10.0 mi North 9.2 mph - N/A   Overcast